188  
NZUS99 KDVN 290710  
HRRCWA  
HOURLY WEATHER ROUNDUP  
NATIONAL WEATHER SERVICE QUAD CITIES IA IL  
200 AM CDT WED MAR 29 2017  
 
NOTE: "FAIR" INDICATES FEW OR NO CLOUDS BELOW 12,000 FEET WITH  
NO SIGNIFICANT WEATHER AND/OR OBSTRUCTIONS TO VISIBILITY.  
 
* - THESE STATIONS ARE NOT NWS STATIONS AND ARE NOT SUBJECT TO NWS  
QUALITY CONTROL. SOME STATIONS DO NOT REPORT WEATHER SUCH AS FOG.  
   
..NORTHEAST IOWA...............................................
 
 
 
CITY SKY/WX TMP DP RH WIND PRES REMARKS  
DECORAH * CLOUDY 45 37 76 E8 30.18S WCI 40  
DUBUQUE PTCLDY 40 36 86 E7 30.18S WCI 35  
INDEPENDENCE * PTCLDY 39 37 93 E3 30.18R  
OELWEIN * PTCLDY 39 39 100 NE5 30.18S WCI 36  
WATERLOO PTCLDY 38 36 92 E5 30.17S WCI 34  
   
..SOUTHWEST AND SOUTH CENTRAL WISCONSIN........................
 
 
 
CITY SKY/WX TMP DP RH WIND PRES REMARKS  
BOSCOBEL PTCLDY 37 35 92 CALM 30.21R  
JANESVILLE * FOG 36 36 100 E5 30.21F VSB 1/2 WCI 32  
LONE ROCK CLOUDY 39 35 86 SE6 30.22R WCI 35  
MINERAL POINT* PTCLDY 41 37 87 E9 30.20R WCI 35  
MONROE * CLOUDY 36 34 93 E5 30.21R WCI 32  
PRAIRIE DU CHI PTCLDY 39 37 91 CALM 30.21R  
   
..EAST CENTRAL IOWA............................................
 
 
 
CITY SKY/WX TMP DP RH WIND PRES REMARKS  
CEDAR RAPIDS PTCLDY 39 39 100 NE8 30.16R WCI 33  
CLINTON * CLEAR 38 36 92 E13 30.20R WCI 30  
DAVENPORT CLOUDY 41 38 89 E10 30.18R WCI 35  
IOWA CITY MOCLDY 42 38 85 NE6 30.16F WCI 38  
MARSHALLTOWN CLOUDY 42 40 92 E10 30.13F WCI 36  
MONTICELLO * PTCLDY 39 37 93 NE5 30.18R WCI 36  
MUSCATINE * MOCLDY 39 37 93 NE5 30.17S WCI 36  
NEWTON * CLOUDY 43 41 93 E9 30.11F WCI 37  
VINTON * CLOUDY 41 37 87 E7 30.18R WCI 36  
   
..NORTHWEST ILLINOIS...........................................
 
 
 
CITY SKY/WX TMP DP RH WIND PRES REMARKS  
FREEPORT * CLOUDY 37 36 93 E7 30.22S WCI 32  
MOLINE MOCLDY 42 38 85 E10 30.17R WCI 36  
PERU * CLOUDY 42 39 86 E10 30.19R WCI 36  
ROCHELLE * MOCLDY 39 38 93 E7 30.20F WCI 34  
ROCKFORD PTCLDY 39 35 86 NE7 30.22F WCI 34  
SAVANNA * MOCLDY 38 36 92 E7 30.21R WCI 33  
STERLING/R.F.* CLOUDY 41 39 93 E9 30.20R WCI 35  
   
..SOUTHEAST IOWA AND NORTHEAST MISSOURI........................
 
 
 
CITY SKY/WX TMP DP RH WIND PRES REMARKS  
BURLINGTON PTCLDY 43 41 93 E6 30.14R WCI 39  
FAIRFIELD * PTCLDY 43 39 87 E8 30.12F WCI 38  
FORT MADISON * PTCLDY 45 41 87 E5 30.14F WCI 42  
KEOKUK * CLOUDY 46 43 87 E13 30.12F WCI 41  
KIRKSVILLE CLOUDY 49 46 90 E9 30.08F WCI 45  
KNOXVILLE * NOT AVBL  
OTTUMWA MOCLDY 45 42 89 E9 30.11S WCI 40  
WASHINGTON * CLOUDY 39 39 100 E8 30.14F WCI 34  
   
..WESTERN ILLINOIS.............................................
 
 
 
CITY SKY/WX TMP DP RH WIND PRES REMARKS  
GALESBURG * CLOUDY 41 40 93 E9 30.15R WCI 36  
MACOMB * PTCLDY 41 40 95 E3 30.17R  
PEORIA CLOUDY 42 39 89 NE15 30.16R WCI 34  
QUINCY CLOUDY 48 44 86 E12 30.10F WCI 43  
 
END...  
 
 
CLICK HERE TO GO TO PREVIOUS BULLETINS.

The Nexlab IL Page
The Nexlab IA Page
The Nexlab MO Page Main Text Page